Miscellaneous Local Product
Issued by NWS Hastings, NE

Home | Current Version | Previous Version | Text Only | Print | Product List | Glossary On
Versions: 1 2 3 4 5 6 7 8 9 10 11 12 13 14 15 16 17 18 19 20 21 22 23 24 25 26 27 28 29 30 31 32 33 34 35 36 37 38 39 40 41 42 43 44 45 46 47 48 49 50
000
AXUS43 KGID 290302
MISGRI

GID CWA HOURLY WEATHER ROUNDUP
NATIONAL WEATHER SERVICE HASTINGS NE
1000 PM CDT FRI APR 28 2017

NOTE: "FAIR" INDICATES FEW OR NO CLOUDS BELOW 12,000 FEET WITH NO
SIGNIFICANT WEATHER AND/OR OBSTRUCTIONS TO VISIBILITY.

...SOUTH CENTRAL NEBRASKA...

CITY           SKY/WX    TMP DP  RH WIND       PRES   REMARKS
GRAND ISLAND   CLOUDY    39  38  96 N9        30.04R WCI  33
HASTINGS       CLOUDY    39  37  92 NE14      30.04R FOG     WCI  31
KEARNEY        CLOUDY    37  34  87 N10       30.05R WCI  30
ORD            CLOUDY    40  34  79 NW3       30.05R
YORK           CLOUDY    39  39 100 NE18G24   30.04R WCI  30
AURORA         CLOUDY    39  38  94 NE10      30.03R WCI  32
LEXINGTON      CLOUDY    37  34  86 NE13      30.04S WCI  29
HOLDREGE       CLOUDY    38  35  89 NE12      30.05R WCI  30
HEBRON         CLOUDY    40  38  92 N12       30.02R WCI  33

...NEBRASKA PANHANDLE...

CITY           SKY/WX    TMP DP  RH WIND       PRES   REMARKS
CHADRON        CLOUDY    39  29  67 N8        30.13R WCI  33
ALLIANCE       CLOUDY    34  32  92 N3        30.09R
SCOTTSBLUFF    CLOUDY    34  32  92 N5        30.13R WCI  30
SIDNEY         FRZ RAIN  33  31  92 N10       30.09R FOG     WCI  25

...WESTERN AND NORTH CENTRAL NEBRASKA...

CITY           SKY/WX    TMP DP  RH WIND       PRES   REMARKS
VALENTINE      CLOUDY    44  26  49 N8        30.08R
AINSWORTH      CLOUDY    42  31  65 NE6       30.08R
ONEILL         CLOUDY    43  29  58 NE8       30.07R
BROKEN BOW     CLOUDY    39  34  82 NE8       30.04R WCI  33
IMPERIAL       CLOUDY    36  32  85 NE16      30.07R WCI  26
NORTH PLATTE   CLOUDY    38  34  85 NE10      30.07R WCI  31
MCCOOK         CLOUDY    38  34  85 NE14      30.06R WCI  30

...EASTERN NEBRASKA...

CITY           SKY/WX    TMP DP  RH WIND       PRES   REMARKS
NORFOLK        CLOUDY    43  33  68 NE12      30.04R
SO SIOUX CITY  CLOUDY    45  35  68 NE8       30.05R
TEKAMAH        CLOUDY    44  38  79 N6        30.05R
COLUMBUS       CLOUDY    39  36  87 NE3       30.06R
ALBION         CLOUDY    42  34  72 N5        30.06R
OMAHA EPPLEY   CLOUDY    43  37  79 N8        30.03R
OFFUTT AFB     CLOUDY    42  38  86 N8        30.02R
MILLARD        CLOUDY    44  40  88 CALM      30.03R
LINCOLN        CLOUDY    41  39  93 NE14      30.03R
NEBRASKA CITY  CLOUDY    41  41 100 NE13      30.00R
BEATRICE       CLOUDY    41  40  96 NE10      29.99R FOG
FALLS CITY     CLOUDY    44  41  89 NE8       29.97R

...NORTHERN KANSAS...

CITY           SKY/WX    TMP DP  RH WIND       PRES   REMARKS
GOODLAND       LGT SNOW  33  33 100 NE18      29.99R FOG     WCI  22
HILL CITY      CLOUDY    39  36  89 NE13      30.04R WCI  31
NORTON         CLOUDY    37  32  81 NE12      30.04R WCI  30
PHILLIPSBURG   CLOUDY    39  36  87 N12       30.04R WCI  32
SMITH CENTER   CLOUDY    37  36  93 N13       30.03R WCI  29
HAYS           CLOUDY    42  38  85 NE16      29.99R
RUSSELL        CLOUDY    43  39  86 NE15      29.98R
CONCORDIA      CLOUDY    41  39  93 NE13      29.99R
SALINA         CLOUDY    46  41  82 N15       29.96R
TOPEKA         CLOUDY    47  45  93 N13       29.94R



USA.gov is the U.S. government's official web portal to all federal, state and local government web resources and services.